Regional Weather Roundup
Issued by NWS Sterling, VA

Home | Current Version | Previous Version | Graphics & Text | Print | Product List | Glossary On
Versions: 1 2 3 4 5 6 7 8 9 10 11 12 13 14 15 16 17 18 19 20 21 22 23 24 25 26 27 28 29 30 31 32 33 34 35 36 37 38 39 40 41 42 43 44 45 46 47 48 49
000
ASUS41 KLWX 291410
RWRLWX

REGIONAL WEATHER ROUNDUP
NATIONAL WEATHER SERVICE BALTIMORE MD/WASHINGTON DC
900 AM EST THU JAN 29 2015

Note: "FAIR" indicates few or no clouds below 12,000 feet
with no significant weather and/or obstructions to visibility.
 TC=TEMPERATURE CELSIUS

 * =Non NWS site. Station does not report precipitation (e.g. rain,
    snow, etc.), thunder, or fog.

DCZ001-MDZ009-015-VAZ040>042-051-053>054-291500-
WASHINGTON METRO

CITY           SKY/WX    TMP DP  RH WIND       PRES   REMARKS
WASHINGTON NAT CLOUDY    31  13  47 CALM      30.33F
DULLES         CLOUDY    22  14  71 CALM      30.30R
ANDREWS AFB      N/A     27  10  49 E3        30.31F
FT BELVOIR     PTSUNNY   25  17  72 NW1       30.33S
QUANTICO       CLOUDY    25  15  66 CALM      30.34F
COLLEGE PARK*  PTSUNNY   27  18  69 CALM      30.32S
LEESBURG*      CLOUDY    23  18  80 CALM      30.30F
MANASSAS*      SUNNY     21  19  93 CALM      30.32R
GAITHERSBURG*  CLOUDY    25   7  46 E3        30.31S

$$

MDZ006>007-011-014-291500-
BALTIMORE METRO

CITY           SKY/WX    TMP DP  RH WIND       PRES   REMARKS
BWI AIRPORT    PTSUNNY   25  10  53 E3        30.31F
MD SCIENCE CTR   N/A     28   7  41 MISG      30.32F
MARTIN STATE   PTSUNNY   28  14  54 CALM      30.34S
ANNAPOLIS      MOSUNNY   28  13  53 E3        30.32F
FORT MEADE*    MOSUNNY   23  19  86 CALM      30.34S

$$

MDZ012-015-019>023-291500-
MARYLAND EASTERN SHORE

CITY           SKY/WX    TMP DP  RH WIND       PRES   REMARKS
OCEAN CITY     SUNNY     29  14  53 N5        30.35S
SALISBURY      SUNNY     30  13  49 CALM      30.34F
BAY BRIDGE AP*   N/A     30   9  40 E5        30.33F
EASTON*        MOSUNNY   30  16  55 E3        30.35F

$$

MDZ017>025-291500-
SOUTHERN MARYLAND

CITY           SKY/WX    TMP DP  RH WIND       PRES   REMARKS
PATUXENT RIVER PTSUNNY   30  16  56 E3        30.32F
ST INIGOES     MOSUNNY   31  16  54 CALM      30.32F
LEONARDTOWN*   MOSUNNY   28  14  54 MISG        N/A

$$

MDZ003>005-291500-
NORTH CENTRAL MARYLAND

CITY           SKY/WX    TMP DP  RH WIND       PRES   REMARKS
FREDERICK*     SUNNY     19  10  68 CALM      30.32F
HAGERSTOWN APT CLOUDY    17   8  67 CALM      30.24S
WESTMINSTER*   CLOUDY    21   9  58 CALM      30.25S

$$

MDZ501>502-291500-
WESTERN MARYLAND

CITY           SKY/WX    TMP DP  RH WIND       PRES   REMARKS
OAKLAND*       PTSUNNY   27   5  39 S13       30.01F WCI  16
CUMBERLAND*    PTSUNNY   19  12  73 CALM      30.26F

$$

VAZ025>031-291500-
SHENANDOAH VALLEY

CITY           SKY/WX    TMP DP  RH WIND       PRES   REMARKS
WINCHESTER*    CLOUDY    25  14  63 CALM      30.24F
FRONT ROYAL*   FAIR      25  18  74 CALM      30.23F
LURAY*         FAIR      27  21  80 CALM      30.24S
NEW MARKET*    PTSUNNY   23  18  81 SW3       30.24R
STAUNTON*      PTSUNNY   26  19  74 SW5       30.25R
WAYNESBORO*    PTSUNNY   27  13  54 CALM      30.23R

$$

WVZ021-048>050-054>055-291500-
EASTERN WEST VIRGINIA PANHANDLE

CITY           SKY/WX    TMP DP  RH WIND       PRES   REMARKS
MARTINSBURG    CLOUDY    20  11  68 CALM      30.25F
PETERSBURG*    PTSUNNY   19  15  83 CALM      30.21F

$$

VAZ036>039-050-291500-
CENTRAL FOOTHILLS

CITY           SKY/WX    TMP DP  RH WIND       PRES   REMARKS
CHARLOTTESVILL PTSUNNY   25  14  63 S3        30.29F
CULPEPER*      CLOUDY    25  19  80 CALM      30.31F
ORANGE*        CLOUDY    27  19  74 CALM      30.32F
GORDONSVILLE*  FAIR      25  17  72 CALM      30.30F
WARRENTON*     FAIR      23  22  96 CALM      30.31S

$$

VAZ055>057-291500-
NORTH AND CENTRAL PIEDMONT

CITY           SKY/WX    TMP DP  RH WIND       PRES   REMARKS
FREDERICKSBRG* CLOUDY    25  18  75 CALM      30.32S
STAFFORD*      CLOUDY    22  15  72 CALM      30.36S

$$

NCZ024-NYZ072-PAZ021-071-VAZ022-071-291500-
OTHER REGIONAL OBSERVATIONS

CITY           SKY/WX    TMP DP  RH WIND       PRES   REMARKS
NEW YORK CITY  SUNNY     22   4  46 CALM      30.34F
PHILADELPHIA   PTSUNNY   28   8  43 E9        30.33F WCI  19
PITTSBURGH     CLOUDY    25  11  55 SE9       29.99F WCI  15
ROANOKE        MOSUNNY   27  18  69 CALM      30.28S
RICHMOND       PTSUNNY   28  18  66 S3        30.33F
RALEIGH        PTSUNNY   31  13  47 CALM      30.36R

$$

ANZ530>537-291500-
MARINE OBSERVATIONS

STATION/POSITION TIME  TEMP    WIND        PRES
                       AIR SEA DIR/SP/G
                 (UTC) (F)     (DEG/KT/KT) (MB)
THOMAS PT LIGHT  1400   28 35   90/  7/  8 1027.7F
BALT KEY BRIDGE  1400   26      70/  5/  7 1026.7F
COVE POINT       1400   29      80/  5/  6 1027.0S
LEWISETTA        1400   31 35   90/  3/  4 1026.9S
SOLOMONS ISLAND  1400      37                N/A
PINEY POINT      1400          100/  6/  8   N/A

$$




USA.gov is the U.S. government's official web portal to all federal, state and local government web resources and services.